sat.trackr.live / text

‹ back to catalog

STARLINK-31275

NORAD 59197 · 2024-045V

PAYLOAD ACTIVE UNKNOWN

§ Identity

Operator
Country
US
Launch date
2024-03-10
Launch site
AFETR
Launch vehicle
Mass (kg)
RCS (m²)

Purposes: comms

External: N2YO · Heavens-Above · Gunter

§ Orbital elements

Epoch: 2026-09-20T04:21:42.357600Z

Period
94.27 min
Inclination
43.0005°
Eccentricity
0.0000783
Mean motion
15.27575060 rev/d
Perigee alt
482.5 km
Apogee alt
483.6 km
Semi-major
6,861.2 km
B*
4.3260e-4
RAAN
74.3916°
Arg perigee
289.7537°
Mean anomaly
70.3230°
Rev number
14,290

§ Raw data

STARLINK-312751 59197U 24045V   26263.18174025  .00011659  00000+0  43260-3 0  99922 59197  43.0005  74.3916 0000783 289.7537  70.3230 15.27575060142903

JSON: /api/v1/satellites/59197 · /tle

For live sub-satellite position, see the globe view (requires WebGL).

§ Visibility from observer

Set your observer location to see the next 7 days of passes ≥ 10°. The values pass through the URL so the page stays shareable.

No JS? Fill the form by hand. The geolocation button needs JavaScript.